Theta_e
338 333 329 326 325 326 329 329 328 327 327 328 328 328 327 326 326 326 325 325 326 328 329 330 332 331 324 319 317 317 317 318 318 324 327 325 327 331 339 340 341 342 343
338 335 330 328 326 326 328 328 329 329 328 328 327 326 326 326 326 325 326 328 329 332 333 329 318 315 317 318 319 319 319 319 319 322 322 321 321 322 326 329 335 334 343
337 337 331 330 328 327 328 329 329 329 328 328 327 326 326 326 326 327 329 332 332 322 315 316 318 318 318 319 319 320 320 320 320 320 324 327 327 326 323 322 323 328 328
336 338 332 332 331 330 329 329 329 329 328 328 327 326 326 326 327 329 332 325 315 316 317 318 318 320 322 324 326 327 327 327 326 325 328 329 329 329 327 327 325 323 324
333 338 334 333 334 334 332 330 330 330 329 327 326 325 326 326 328 331 322 315 317 317 318 319 321 324 327 328 330 330 329 330 330 330 330 329 329 330 329 329 329 328 323
326 336 337 335 334 335 335 331 331 329 328 327 326 325 326 327 329 324 316 317 318 319 320 321 322 327 329 330 330 331 331 330 330 329 329 328 327 326 327 329 331 331 330
324 332 337 337 334 334 334 331 329 328 328 327 326 326 327 328 325 317 317 318 319 320 321 321 323 326 329 330 330 330 330 330 330 329 329 328 327 325 325 325 325 328 330
323 329 335 337 336 334 332 330 329 328 327 326 326 327 328 326 321 318 318 319 320 321 325 327 328 329 331 331 331 330 330 329 329 329 329 328 328 327 324 323 322 324 327
324 326 331 333 332 330 329 328 328 327 326 326 326 327 327 323 319 318 318 319 322 327 329 329 330 331 331 331 331 331 330 329 330 329 328 329 328 327 324 321 318 318 322
326 326 326 327 327 328 328 328 327 326 326 326 327 327 324 321 319 318 320 322 324 329 330 332 332 332 332 332 331 331 331 331 330 328 328 328 328 325 323 320 315 314 316
329 330 330 329 329 329 328 327 326 326 326 327 327 325 322 321 319 320 324 327 329 330 330 331 331 332 332 332 332 332 332 329 326 326 326 326 325 324 321 314 311 310 312
332 331 329 329 328 328 327 326 325 325 326 327 325 322 320 319 318 322 325 328 328 329 330 331 331 331 332 333 332 331 326 325 325 326 325 325 323 319 312 310 310 311 314
338 334 333 330 326 326 326 325 325 326 327 325 323 320 318 318 323 322 326 328 329 330 331 332 333 333 331 327 325 325 327 328 326 322 318 314 311 310 311 312 315 319 323
341 337 334 329 326 325 325 325 326 327 326 324 322 319 322 323 325 330 333 330 331 332 333 332 329 327 330 332 330 328 325 323 318 313 311 310 310 311 313 314 317 321 322
341 341 334 332 327 326 326 326 327 325 324 324 322 319 327 330 330 331 331 331 332 332 330 330 333 333 331 328 324 322 318 313 309 308 309 310 312 313 314 314 314 316 318
339 340 336 333 327 327 327 327 325 324 324 323 322 319 322 326 329 331 332 333 331 331 333 334 332 329 326 323 319 314 309 307 307 308 310 312 313 314 314 314 314 315 315
337 339 339 336 330 329 329 327 325 325 327 325 321 321 321 325 330 333 333 331 332 334 333 331 328 325 321 316 312 307 306 306 308 310 312 312 312 312 312 312 312 312 312
338 338 340 340 337 330 331 327 329 329 331 329 324 326 329 331 332 333 332 333 333 332 330 326 324 320 315 310 307 305 308 307 308 312 311 311 310 311 311 311 310 311 311
338 338 340 342 339 337 331 333 329 331 337 334 329 329 331 332 333 333 333 333 333 329 326 323 320 315 311 310 307 305 306 309 310 313 311 310 310 311 310 309 308 309 310
337 338 337 337 338 340 335 334 335 334 338 338 335 335 335 334 333 333 333 333 328 325 322 320 315 311 309 308 305 305 307 311 311 312 313 312 312 311 311 310 308 309 307
338 338 337 336 336 338 339 337 337 338 339 339 338 337 335 334 334 333 333 331 325 323 321 314 311 310 308 309 310 311 312 311 311 312 313 312 311 311 311 310 310 309 308
338 338 338 336 334 336 340 340 340 339 339 338 336 334 334 335 333 333 331 326 323 319 313 312 310 308 309 310 309 310 311 311 312 310 310 308 311 310 309 310 310 308 307
338 337 334 334 335 338 339 339 339 337 335 335 335 335 335 334 334 329 326 322 315 311 311 309 306 304 309 310 310 310 310 311 310 311 309 309 309 308 309 308 309 309 307
336 335 336 337 337 338 338 337 336 337 337 337 335 336 335 333 327 325 318 311 310 309 306 303 303 305 306 309 310 309 310 310 309 308 307 307 307 307 307 307 309 309 307
337 337 336 337 338 338 338 338 338 339 340 338 336 333 328 326 320 312 311 309 304 302 302 304 306 307 307 308 309 308 308 308 308 309 307 306 306 306 306 307 308 308 306
340 339 339 339 340 339 340 340 341 341 336 330 328 327 323 314 313 310 305 302 302 302 304 305 306 306 306 305 304 303 305 305 305 305 304 304 304 304 305 306 306 307 305
Wind_Speed
24 22 21 18 17 17 17 16 15 14 13 12 11 10 9 8 8 8 9 9 9 9 9 9 10 9 9 9 9 9 10 9 8 7 8 8 9 8 8 8 9 9 8
26 24 22 20 18 18 17 15 14 13 12 11 11 9 8 8 8 8 8 8 8 9 9 9 9 10 11 11 10 9 8 7 7 5 5 7 8 8 9 9 9 8 8
26 25 23 21 19 18 17 14 13 12 11 10 8 8 7 7 7 7 7 8 8 8 10 12 11 10 9 8 6 5 4 4 4 3 4 8 10 12 12 12 12 12 11
26 27 25 23 20 18 16 14 13 11 10 9 8 7 7 7 7 7 7 7 10 12 11 11 10 8 6 4 3 3 3 3 4 3 8 11 13 14 14 14 14 14 14
25 26 25 23 20 18 16 15 13 12 10 9 8 7 7 6 6 6 6 10 11 11 10 9 7 5 3 1 1 0 1 3 5 7 9 12 13 15 16 17 17 16 16
23 25 25 23 21 19 16 15 14 12 11 9 8 7 6 6 5 6 9 10 10 9 8 6 4 4 3 3 3 4 5 7 8 9 13 16 19 19 20 20 20 19 19
22 23 24 22 20 18 16 15 14 12 10 9 8 8 7 6 7 9 10 9 8 7 5 5 6 7 7 6 7 9 11 12 13 15 17 21 24 26 27 25 25 24 24
19 22 23 21 18 17 15 14 13 12 10 9 8 7 7 7 9 10 9 9 7 6 7 8 8 9 10 12 13 14 16 17 20 22 24 26 29 29 29 28 26 25 23
19 20 21 19 17 16 15 14 13 12 11 10 9 8 8 9 10 10 9 9 9 9 9 9 10 12 14 16 18 19 21 23 25 28 28 30 32 32 30 29 28 27 26
18 18 18 17 17 16 16 15 13 12 12 10 10 9 10 11 11 11 11 11 11 11 12 13 14 16 18 20 21 23 25 28 30 32 33 34 35 34 33 31 30 29 27
19 17 16 17 17 17 16 14 14 13 12 11 11 11 11 11 12 12 12 12 12 13 14 16 19 21 22 24 26 28 30 32 33 34 34 37 37 38 36 33 31 29 27
19 18 17 17 17 16 16 15 14 13 13 12 12 11 11 12 13 13 15 13 14 15 17 20 22 23 25 27 30 32 32 33 35 36 35 37 37 36 34 31 29 27 22
16 17 15 16 16 16 17 16 15 14 13 13 12 12 12 13 13 15 15 16 17 17 18 19 22 24 27 28 30 32 35 35 35 33 32 32 32 32 30 26 23 17 16
19 14 14 16 16 16 17 16 15 14 14 13 14 13 13 14 15 15 15 15 16 17 19 21 23 25 29 32 33 31 31 32 32 31 31 33 32 27 25 22 19 15 18
19 18 15 15 17 18 18 16 14 14 15 15 15 15 16 15 15 15 15 15 16 17 19 22 26 29 30 30 28 29 29 30 29 28 27 26 21 19 18 18 17 17 18
19 20 17 15 18 18 16 17 16 16 15 15 16 18 17 17 16 16 16 16 15 20 22 26 28 28 27 25 26 28 30 29 27 25 23 21 19 17 17 17 17 18 19
21 22 21 19 19 19 18 18 18 17 17 17 18 18 18 18 17 16 17 16 21 22 25 24 24 24 25 25 25 26 26 24 22 20 17 14 12 13 14 15 16 17 18
24 23 24 23 23 22 21 20 20 18 19 19 19 19 19 19 18 19 18 21 21 23 22 21 22 24 25 24 23 23 21 21 18 14 9 9 11 10 14 16 16 17 17
25 23 24 27 25 24 24 22 23 22 20 19 21 21 21 20 19 18 20 22 24 20 20 20 23 24 24 21 22 22 21 17 13 9 3 7 10 10 12 13 15 16 17
26 25 24 26 29 27 26 26 24 24 23 21 21 21 20 18 17 19 21 22 19 19 20 22 23 23 23 21 23 21 18 10 12 11 15 14 13 12 12 14 15 13 16
27 28 29 29 29 30 29 28 27 25 23 21 20 20 18 16 19 21 19 20 18 20 22 23 22 22 21 18 16 18 13 8 4 5 9 14 14 12 15 15 14 15 16
26 25 25 23 23 27 27 25 25 23 21 19 18 17 16 20 19 18 19 19 20 21 22 21 23 21 16 13 14 17 10 10 5 23 2 16 10 13 18 17 17 17 18
22 21 17 15 18 23 22 21 19 17 16 16 16 16 19 17 17 17 18 19 20 20 19 22 22 18 12 11 13 11 10 7 24 3 20 10 17 18 16 20 19 18 18
19 15 12 14 15 16 15 15 14 13 14 15 14 17 15 15 15 17 18 19 19 20 20 18 15 13 14 11 12 10 12 15 18 20 10 24 18 20 22 20 17 18 18
18 17 16 15 15 16 15 16 15 14 14 15 11 11 11 13 15 16 17 18 18 16 14 12 12 13 14 14 13 16 16 17 17 19 34 27 23 21 22 19 18 20 18
20 19 17 15 17 16 16 16 14 13 10 7 8 9 11 12 14 15 15 15 13 12 11 11 11 12 13 14 15 16 16 17 20 19 25 31 30 24 21 20 19 16 18
Wind_Direction
172 168 160 157 155 150 148 148 149 149 148 146 138 133 124 118 112 111 110 108 104 101 98 94 89 85 82 79 77 74 70 63 57 53 37 19 12 3 346 332 326 324 310
171 170 163 161 159 156 156 156 156 154 152 150 145 139 132 128 125 119 115 109 104 100 98 98 96 95 91 84 77 71 63 55 49 39 23 7 349 333 323 316 304 304 281
173 172 168 166 165 163 165 165 167 165 161 154 148 142 139 138 131 128 118 114 110 110 112 111 109 101 93 84 76 68 52 31 19 13 4 349 336 324 312 301 294 288 280
175 175 173 170 170 170 172 176 178 176 170 163 161 159 153 149 143 129 121 118 120 121 121 117 110 105 101 96 70 38 28 17 3 351 332 327 326 320 315 313 304 284 274
176 178 177 175 176 178 180 182 186 184 181 179 175 169 163 154 141 130 131 129 130 130 128 125 123 124 132 146 142 108 356 332 327 322 325 329 325 315 309 306 306 305 280
179 181 181 181 184 186 186 189 192 194 193 191 181 176 172 159 151 149 144 141 142 142 142 144 158 196 223 240 248 276 297 303 308 309 314 322 323 319 312 301 297 297 292
181 183 184 187 188 190 193 195 200 201 199 196 188 186 179 172 169 162 156 154 160 166 171 193 219 237 250 269 281 292 299 303 304 306 312 318 317 320 315 308 299 287 282
181 182 186 188 191 196 199 204 205 205 203 200 197 193 188 187 180 173 169 174 183 198 214 228 241 254 268 280 286 293 301 307 309 307 308 310 312 314 313 308 302 296 289
181 183 185 187 192 199 204 207 208 209 207 206 204 202 201 195 188 186 188 195 209 224 238 250 262 274 284 292 298 300 302 303 302 302 304 306 308 310 307 303 298 291 286
182 185 184 189 195 201 204 207 211 211 210 211 212 212 210 203 199 200 203 217 228 242 257 270 279 289 297 300 300 300 301 302 302 302 304 303 303 303 301 298 293 288 280
187 189 192 195 199 204 207 208 209 211 215 220 222 220 217 213 211 213 221 232 244 259 273 283 292 297 302 304 302 301 301 301 302 301 301 299 299 299 297 296 292 287 278
193 195 197 201 203 207 208 210 213 216 219 225 227 227 224 222 220 227 236 244 259 273 285 291 295 298 300 301 300 301 301 302 301 299 298 298 299 298 298 296 294 289 280
196 198 199 202 204 208 212 212 215 219 225 230 231 232 232 232 233 238 247 260 271 282 289 295 298 298 299 302 304 304 303 303 302 302 302 302 300 300 299 297 292 287 277
204 202 200 202 207 211 218 218 221 226 229 233 237 235 237 238 243 252 261 271 278 286 291 297 302 306 307 306 305 305 306 306 305 306 307 306 305 301 294 289 285 274 264
213 215 215 211 207 213 216 220 222 229 233 237 240 241 239 244 255 260 269 277 284 290 298 303 304 306 310 310 309 307 306 305 307 308 308 308 308 302 297 293 287 280 268
214 222 222 219 213 220 224 221 221 227 237 243 245 246 247 253 260 266 273 279 286 296 299 303 307 310 310 309 310 312 310 309 309 309 307 307 307 306 305 302 298 295 292
220 225 223 225 225 223 226 228 226 233 240 246 248 249 251 257 265 272 278 286 293 292 297 306 311 313 314 316 314 311 310 311 312 307 308 311 318 318 314 310 307 302 298
230 234 236 234 234 231 228 229 232 235 245 248 250 253 256 261 268 276 282 292 291 299 304 312 317 319 317 318 321 320 315 316 312 300 304 307 322 318 315 309 311 311 308
241 248 241 242 245 240 233 233 235 240 247 250 251 254 256 259 266 270 284 288 296 302 308 316 321 319 320 323 326 320 318 314 295 265 343 350 331 322 323 317 320 314 311
244 248 244 246 245 241 237 235 236 238 245 246 248 250 254 257 272 278 283 295 305 310 316 317 315 319 325 327 327 319 322 309 295 279 255 298 315 307 323 324 319 321 318
245 251 252 250 250 239 237 232 234 239 243 243 246 248 250 269 276 278 292 303 308 312 310 311 321 324 329 330 338 323 316 314 317 13 291 300 306 301 322 321 317 316 318
248 249 254 254 247 236 235 239 238 242 240 241 241 246 259 276 277 291 301 305 307 306 311 319 322 325 328 336 338 329 324 319 291 320 358 320 310 314 312 307 309 313 318
238 240 245 244 230 227 233 234 231 228 225 231 244 261 277 279 290 293 301 302 303 311 312 315 319 325 326 336 337 341 332 314 322 297 313 318 313 314 311 309 306 306 314
218 217 211 207 208 213 219 222 229 236 238 252 262 274 274 276 287 297 299 303 307 309 308 312 322 328 332 329 328 323 314 310 319 316 294 311 312 313 312 312 307 306 308
191 191 190 198 203 208 219 217 227 241 252 269 252 256 270 288 294 299 306 307 308 308 311 320 326 329 329 329 323 320 317 316 313 303 303 311 308 308 309 304 302 303 304
173 177 186 198 207 213 219 225 232 243 251 238 244 269 284 296 303 308 310 311 313 318 326 330 330 330 332 327 326 327 325 319 311 304 298 304 308 312 308 303 306 295 303